This demonstration page uses our WeatherBlox Daily Observations layout. Learn more.

Left ArrowRight Arrow

Hourly Observations for December 9, 2017

Temp ( °F °C ) Dew Point ( °F °C ) Humidity (%) Winds ( mph kmh ) Pressure ( in mb ) Visibility ( mi km ) Precip ( " mm )
12:53 am 00:53 Cloudy with Mist and Fog 33 0.6 33 0.6 100 100 W 3 6 29.96 1014 4 6 0.00 0.00
1:16 am 01:16 Cloudy with Light Snow 33 0.6 33 0.6 100 100 NW 5 7 30.00 1016 3 4 0.01 0.25
1:53 am 01:53 Cloudy with Light Snow 33 0.6 33 0.6 100 100 VRB 3 6 29.94 1014 3 4 0.02 0.51
2:53 am 02:53 Cloudy with Light Snow 32 0 32 0 100 100 Calm 29.96 1015 3 4 0.03 0.76
2:55 am 02:55 Cloudy with Light Snow 32 0 32 0 100 100 Calm 30.00 1016 3 5 0.00 0.03
3:02 am 03:02 Cloudy with Light Snow 33 0.6 33 0.6 100 100 Calm 30.00 1016 3 4 0.00 0.03
3:53 am 03:53 Cloudy with Light Snow 32 0 32 0 100 100 Calm 29.94 1014 3 4 0.03 0.76
4:53 am 04:53 Cloudy with Light Snow 32 0 32 0 100 100 NW 5 7 29.92 1013 3 4 0.02 0.51
5:00 am 05:00 Cloudy with Light Snow 32 0 32 0 100 100 VRB 3 6 29.97 1015 3 5 0.00 0.03
5:08 am 05:08 Cloudy with Light Snow 32 0 32 0 100 100 NNW 3 6 29.97 1015 3 4 0.00 0.03
5:53 am 05:53 Cloudy with Light Snow 32 0 32 0 100 100 Calm 29.94 1014 2 3 0.01 0.25
6:28 am 06:28 Cloudy with Light Snow 32 0 31 -0.6 96 96 NW 5 7 30.00 1016 2 2 0.01 0.25
6:53 am 06:53 Cloudy with Light Snow 32 0 31 -0.6 96 96 NW 5 7 29.95 1014 1 2 0.03 0.76
7:53 am 07:53 Cloudy with Light Snow 32 0 31 -0.6 96 96 VRB 5 7 29.96 1015 2 2 0.01 0.25
8:15 am 08:15 Cloudy with Light Snow 32 0 31 -0.6 96 96 Calm 30.00 1016 2 3 0.00 0.03
8:32 am 08:32 Cloudy with Light Snow 32 0 30 -1.1 92 92 WNW 7 11 30.00 1016 4 6 0.00 0.03
8:53 am 08:53 Cloudy 32 0 30 -1.1 92 92 NW 6 9 29.97 1015 9 14 0.00 0.03
9:53 am 09:53 Cloudy 32 0 31 -0.6 96 96 W 6 9 29.98 1015 10 16 0.00 0.00
10:30 am 10:30 Cloudy 32 0 29 -1.7 88 88 NW 9 15 30.03 1017 10 16 0.00 0.00
10:53 am 10:53 Mostly Cloudy 33 0.6 29 -1.7 85 85 WNW 6 9 29.97 1015 10 16 0.00 0.00
11:04 am 11:04 Partly Cloudy 33 0.6 29 -1.7 85 85 NW 8 13 30.03 1017 10 16 0.00 0.00
11:53 am 11:53 Sunny 35 1.7 29 -1.7 78 78 W 10 17 29.98 1015 10 16 0.00 0.00
12:53 pm 12:53 Sunny 36 2.2 24 -4.4 62 62 W 9 15 29.98 1015 10 16 0.00 0.00
1:53 pm 13:53 Sunny 37 2.8 24 -4.4 59 59 W 14 22 29.97 1015 10 16 0.00 0.00
2:53 pm 14:53 Sunny 38 3.3 25 -3.9 60 60 W 7 11 29.96 1015 10 16 0.00 0.00
3:53 pm 15:53 Sunny 38 3.3 25 -3.9 60 60 WSW 9 15 29.97 1015 10 16 0.00 0.00
4:53 pm 16:53 Mostly Sunny N/A N/A N/A undefined N/A N/A N/A 0.00 0.00
5:53 pm 17:53 Clear 35 1.7 27 -2.8 72 72 WSW 7 11 30.02 1017 10 16 0.00 0.00
6:53 pm 18:53 Clear 34 1.1 27 -2.8 76 76 WSW 5 7 30.06 1018 10 16 0.00 0.00
7:53 pm 19:53 Partly Cloudy 32 0 28 -2.2 85 85 SW 3 6 30.08 1019 10 16 0.00 0.00
8:53 pm 20:53 Mostly Clear 32 0 29 -1.7 88 88 SW 6 9 30.10 1019 10 16 0.00 0.00
9:53 pm 21:53 Clear 32 0 29 -1.7 88 88 W 5 7 30.12 1020 10 16 0.00 0.00
10:53 pm 22:53 Clear 31 -0.6 28 -2.2 89 89 W 5 7 30.15 1021 10 16 0.00 0.00
11:53 pm 23:53 Clear 31 -0.6 26 -3.3 82 82 W 3 6 30.17 1022 10 16 0.00 0.00

Powered by AerisWeather